Location: Lake Crest
(37.6062°N, 88.9176°W)
Time: 11:24:18
(UTC+00:00)

USA 238 - Pass Details

Date: 15 December 2019
Orbit: 1023 x 1189 km, 63.4° (Epoch: 16 January)

Event Time Altitude Azimuth Distance (km) Brightness Sun altitude
Rises 10:57:03 0° 204° (SSW) 3,751 6.4 -24.2°
Reaches altitude 10° 10:59:37 10° 203° (SSW) 2,808 5.8 -23.7°
Maximum altitude 11:06:12 74° 120° (ESE) 1,078 3.8 -22.4°
Drops below altitude 10° 11:12:59 10° 36° (NE) 2,897 6.2 -21.1°
Sets 11:15:41 0° 35° (NE) 3,878 6.9 -20.6°
